Location: Unspecified
(41.5000°N, 0.0000°E)
Time: 22:19:00
(UTC+00:00)

deb Explorer IX - Pass Details

Date: 24 June 2019
Orbit: 539 x 1112 km, 38.8° (Epoch: 19 July)

Event Time Altitude Azimuth Distance (km) Brightness Sun altitude
Rises 10:49:14 0° 194° (SSW) 3,548 ? 66.3°
Reaches altitude 10° 10:52:50 10° 174° (S) 2,718 ? 66.8°
Maximum altitude 10:56:37 16° 139° (SE) 2,407 ? 67.3°
Drops below altitude 10° 11:00:36 10° 104° (ESE) 2,898 ? 67.8°
Sets 11:04:38 0° 85° (E) 3,910 ? 68.3°
